SM7SJR-13 Weather Reports


Display with metric or nautical units.
time (UTC)temp
F
wind
direction
speed
MPH
gust
MPH
rain 1hr
in
rain 24hr
in
rain mn
in
humidity
%
barometer
mb
20260509160003 56 23 6.0 9.0 0.00 0.00 0.00 47 1020.2
20260509151504 57 44 4.0 10.0 0.00 0.00 0.00 37 1020.6
20260509150004 57 66 7.0 13.0 0.00 0.00 0.00 36 1020.8
20260509144504 57 58 6.0 12.0 0.00 0.00 0.00 32 1021.1
20260509143004 57 61 9.0 12.0 0.00 0.00 0.00 33 1021.1
20260509141503 58 45 7.0 12.0 0.00 0.00 0.00 33 1021.1
20260509140004 58 49 6.0 12.0 0.00 0.00 0.00 30 1021.4
20260509133004 58 51 7.0 14.0 0.00 0.00 0.00 28 1021.6
20260509131504 58 47 9.0 15.0 0.00 0.00 0.00 30 1022.0
20260509130004 58 45 7.0 13.0 0.00 0.00 0.00 33 1022.1
20260509124503 58 15 8.0 15.0 0.00 0.00 0.00 29 1022.1
20260509123003 58 45 3.0 16.0 0.00 0.00 0.00 33 1022.2
20260509121504 59 45 7.0 14.0 0.00 0.00 0.00 32 1022.2
20260509120004 60 62 10.0 14.0 0.00 0.00 0.00 34 1022.3
20260509114503 59 46 7.0 14.0 0.00 0.00 0.00 32 1022.4
20260509113004 59 56 10.0 15.0 0.00 0.00 0.00 35 1022.5
20260509110004 59 38 5.0 14.0 0.00 0.00 0.00 36 1022.6
20260509104504 59 48 5.0 13.0 0.00 0.00 0.00 35 1022.6
20260509103004 59 22 8.0 14.0 0.00 0.00 0.00 33 1022.6
20260509100004 59 27 4.0 10.0 0.00 0.00 0.00 41 1022.7
20260509094503 59 24 6.0 10.0 0.00 0.00 0.00 45 1022.6
20260509093004 58 68 5.0 9.0 0.00 0.00 0.00 46 1023.0
20260509091503 57 42 7.0 9.0 0.00 0.00 0.00 44 1023.0
20260509090004 58 66 3.0 9.0 0.00 0.00 0.00 50 1023.0
20260509084504 57 21 6.0 9.0 0.00 0.00 0.00 52 1023.0
20260509083003 57 69 3.0 9.0 0.00 0.00 0.00 52 1023.3
20260509074503 55 55 2.0 8.0 0.00 0.00 0.00 56 1023.3
20260509073004 54 26 1.0 8.0 0.00 0.00 0.00 62 1023.3
20260509071504 53 51 4.0 9.0 0.00 0.00 0.00 63 1023.5
20260509070003 53 31 2.0 8.0 0.00 0.00 0.00 66 1023.6
20260509064503 52 32 2.0 7.0 0.00 0.00 0.00 68 1023.6
20260509063004 51 6 5.0 8.0 0.00 0.00 0.00 72 1023.6
20260509061504 49 21 5.0 8.0 0.00 0.00 0.00 76 1023.7
20260509054504 46 348 2.0 8.0 0.00 0.00 0.00 83 1023.7
20260509053004 45 331 4.0 7.0 0.00 0.00 0.00 84 1023.6
20260509051504 45 348 3.0 9.0 0.00 0.00 0.00 85 1023.6
20260509050004 44 347 5.0 7.0 0.00 0.00 0.00 90 1023.6
20260509044503 42 350 2.0 6.0 0.00 0.00 0.00 95 1023.7
20260509043004 39 327 2.0 5.0 0.00 0.00 0.00 97 1023.7
20260509041503 35 329 3.0 5.0 0.00 0.00 0.00 96 1023.5
20260509040004 33 327 2.0 5.0 0.00 0.00 0.00 96 1023.7
20260509034503 31 324 3.0 5.0 0.00 0.00 0.00 95 1023.7
20260509033004 31 321 3.0 5.0 0.00 0.00 0.00 95 1023.7
20260509031504 31 313 3.0 5.0 0.00 0.00 0.00 95 1024.0
20260509030004 31 314 3.0 5.0 0.00 0.00 0.00 95 1024.0
20260509024504 31 316 3.0 5.0 0.00 0.00 0.00 95 1024.0
20260509021503 31 319 5.0 6.0 0.00 0.00 0.00 95 1024.1
20260509014503 31 315 5.0 6.0 0.00 0.00 0.00 94 1024.1
20260509011503 31 314 4.0 6.0 0.00 0.00 0.00 94 1024.1
20260509010004 30 313 4.0 5.0 0.00 0.00 0.00 94 1024.0
20260509004504 30 312 3.0 5.0 0.00 0.00 0.00 94 1024.1
20260509003004 30 312 3.0 5.0 0.00 0.00 0.00 94 1024.1
20260509001504 30 311 3.0 3.0 0.00 0.00 0.00 94 1024.2
20260509000003 30 320 3.0 5.0 0.00 0.00 0.00 93 1024.4
20260508234504 30 318 3.0 6.0 0.00 0.00 0.00 93 1024.6
20260508233004 30 308 5.0 6.0 0.00 0.00 0.00 93 1024.6
20260508231503 30 306 5.0 5.0 0.00 0.00 0.00 92 1024.6
20260508230004 31 318 3.0 3.0 0.00 0.00 0.00 92 1024.6
20260508224503 32 321 1.0 5.0 0.00 0.00 0.00 92 1024.6
20260508223003 32 315 3.0 5.0 0.00 0.00 0.00 91 1024.7
20260508221504 33 318 3.0 5.0 0.00 0.00 0.00 91 1024.6
20260508220004 34 324 3.0 5.0 0.00 0.00 0.00 91 1024.6
20260508211503 35 345 2.0 5.0 0.00 0.00 0.00 90 1024.7
20260508204503 36 336 2.0 5.0 0.00 0.00 0.00 88 1024.6
20260508203004 36 339 2.0 5.0 0.00 0.00 0.00 87 1024.6
20260508201504 37 340 3.0 5.0 0.00 0.00 0.00 86 1024.5
20260508194503 39 334 3.0 5.0 0.00 0.00 0.00 81 1024.4
20260508193004 40 340 2.0 3.0 0.00 0.00 0.00 80 1024.3
20260508191504 42 333 1.0 6.0 0.00 0.00 0.00 78 1024.3
20260508190004 43 339 3.0 5.0 0.00 0.00 0.00 76 1024.1
20260508183004 45 0 2.0 7.0 0.00 0.00 0.00 74 1024.1
20260508180003 46 353 5.0 8.0 0.00 0.00 0.00 70 1023.9
20260508174504 47 2 4.0 8.0 0.00 0.00 0.00 68 1023.9
20260508171503 48 7 5.0 9.0 0.00 0.00 0.00 62 1023.8
20260508170003 48 18 5.0 12.0 0.00 0.00 0.00 60 1023.8
20260508164504 49 5 7.0 13.0 0.00 0.00 0.00 56 1023.8
20260508163004 50 351 6.0 10.0 0.00 0.00 0.00 50 1023.8
20260508161504 51 357 6.0 13.0 0.00 0.00 0.00 42 1023.8